Trenton, NJ

8:19 AM EDT on June 23, 2018 (GMT -0400)
Trenton Mercer

Weather History for KTTN - October, 2017

Change the Weather History Date:

Friday, October 13, 2017

  Actual Average Record
Temperature  
Mean Temperature 59 °F 55 °F  
Max Temperature 64 °F 66 °F 86 °F (1954)
Min Temperature 53 °F 45 °F 27 °F (1987)
Degree Days  
Heating Degree Days 6 10  
Month to date heating degree days 31 104  
Since 1 July heating degree days 65 169  
Cooling Degree Days 0 0  
Month to date cooling degree days 56 7  
Year to date cooling degree days 1141 962  
Growing Degree Days 8 (Base 50)    
Moisture  
Dew Point 54 °F    
Average Humidity 81    
Maximum Humidity 90    
Minimum Humidity 72    
Precipitation  
Precipitation T in 0.11 in 1.10 in (1990)
Month to date precipitation 1.36 1.91  
Year to date precipitation 34.39 37.16  
Sea Level Pressure  
Sea Level Pressure 30.35 in    
Wind  
Wind Speed 8 mph (ENE)    
Max Wind Speed 15 mph    
Max Gust Speed 22 mph    
Visibility 10 miles    
Events      
T = Trace of Precipitation, MM = Missing Value Source: NWS Daily Summary

Daily Weather History Graph

Daily Weather History Graph

Search for Another Location

Airport or City:

Astronomy

Oct. 13, 2017 Rise Set
Actual Time 7:08 AM EDT 6:22 PM EDT
Civil Twilight 6:40 AM EDT 6:49 PM EDT
Nautical Twilight 6:09 AM EDT 7:20 PM EDT
Astronomical Twilight 5:37 AM EDT 7:52 PM EDT
Moon 12:27 AM EDT (10/13) 3:05 PM EDT (10/13)
Length of Visible Light 12h 08m
Length of Day
11h 13m
Last Quarter, 37% of the Moon is Illuminated
Oct 13
Last Quarter
Oct 19
New
Oct 27
First Quarter
Nov 4
Full
Nov 10
Last Quarter

Hourly Weather History & Observations

Time (EDT) Temp. Dew Point Humidity Pressure Visibility Wind Dir Wind Speed Gust Speed Precip Events Conditions
12:53 AM 54.0 °F 48.9 °F 83% 30.36 in 10.0 mi NE 6.9 mph - N/A   Scattered Clouds
1:53 AM 54.0 °F 48.9 °F 83% 30.37 in 10.0 mi ENE 8.1 mph - N/A   Scattered Clouds
2:53 AM 54.0 °F 48.9 °F 83% 30.37 in 10.0 mi NE 6.9 mph - N/A   Mostly Cloudy
3:53 AM 54.0 °F 48.0 °F 80% 30.37 in 10.0 mi NE 6.9 mph - N/A   Overcast
4:53 AM 54.0 °F 48.0 °F 80% 30.38 in 10.0 mi NE 8.1 mph - N/A   Overcast
5:53 AM 53.1 °F 46.9 °F 80% 30.38 in 10.0 mi NE 9.2 mph - N/A   Overcast
6:53 AM 53.1 °F 46.9 °F 80% 30.39 in 10.0 mi NE 8.1 mph - N/A   Overcast
7:53 AM 53.1 °F 46.9 °F 80% 30.40 in 10.0 mi NE 8.1 mph - N/A   Overcast
8:53 AM 55.0 °F 48.9 °F 80% 30.40 in 10.0 mi NE 8.1 mph - N/A   Overcast
9:48 AM 55.4 °F 48.2 °F 77% 30.42 in 10.0 mi ENE 9.2 mph - N/A   Scattered Clouds
9:53 AM 55.9 °F 48.9 °F 77% 30.41 in 10.0 mi ENE 8.1 mph - N/A   Scattered Clouds
10:53 AM 59.0 °F 51.1 °F 75% 30.41 in 10.0 mi ENE 9.2 mph - N/A   Overcast
11:19 AM 61.0 °F 53.1 °F 75% 30.42 in 10.0 mi ENE 8.1 mph - N/A   Overcast
11:53 AM 61.0 °F 53.1 °F 75% 30.39 in 10.0 mi East 11.5 mph - N/A   Overcast
12:53 PM 62.1 °F 54.0 °F 75% 30.37 in 10.0 mi East 11.5 mph - N/A   Overcast
1:53 PM 62.1 °F 54.0 °F 75% 30.35 in 10.0 mi East 11.5 mph 19.6 mph N/A   Overcast
2:53 PM 63.0 °F 55.0 °F 75% 30.33 in 10.0 mi East 9.2 mph - N/A   Overcast
3:53 PM 63.0 °F 57.0 °F 81% 30.32 in 10.0 mi East 6.9 mph - N/A   Overcast
4:53 PM 64.0 °F 57.0 °F 78% 30.31 in 10.0 mi East 6.9 mph - N/A   Overcast
5:53 PM 64.0 °F 57.0 °F 78% 30.30 in 10.0 mi ESE 11.5 mph - N/A   Overcast
6:07 PM 63.0 °F 57.0 °F 81% 30.32 in 10.0 mi East 8.1 mph - N/A   Overcast
6:18 PM 63.0 °F 57.0 °F 81% 30.32 in 10.0 mi ESE 9.2 mph - N/A   Overcast
6:53 PM 63.0 °F 57.0 °F 81% 30.31 in 10.0 mi East 5.8 mph - N/A   Overcast
7:53 PM 63.0 °F 57.9 °F 84% 30.31 in 10.0 mi ENE 5.8 mph - N/A   Overcast
8:27 PM 63.0 °F 57.9 °F 84% 30.32 in 10.0 mi ENE 6.9 mph - N/A   Overcast
8:38 PM 62.1 °F 57.9 °F 86% 30.32 in 10.0 mi ENE 4.6 mph - N/A   Overcast
8:53 PM 62.1 °F 57.9 °F 86% 30.31 in 10.0 mi ENE 5.8 mph - N/A   Overcast
9:40 PM 62.1 °F 59.0 °F 90% 30.32 in 10.0 mi ENE 6.9 mph - N/A   Overcast
9:53 PM 62.1 °F 59.0 °F 90% 30.30 in 10.0 mi ENE 5.8 mph - N/A   Overcast
10:16 PM 62.1 °F 59.0 °F 90% 30.31 in 10.0 mi ENE 5.8 mph - N/A   Overcast
10:48 PM 62.6 °F 59.0 °F 88% 30.31 in 10.0 mi NE 5.8 mph - N/A   Overcast
10:53 PM 62.1 °F 59.0 °F 90% 30.29 in 10.0 mi NE 5.8 mph - N/A   Overcast
11:53 PM 62.1 °F 59.0 °F 90% 30.28 in 10.0 mi NNE 4.6 mph - 0.00 in   Overcast